Other Public Products
Issued by NWS Charleston, SC

Current Version | Previous Version | Graphics & Text | Print | Product List | Glossary On
Versions: 1 2 3 4 5 6 7 8 9 10 11 12 13 14 15 16 17 18 19 20 21 22 23 24 25 26 27 28 29 30 31 32 33 34 35 36 37 38 39 40 41 42 43 44 45 46 47 48 49 50
132
FPUS82 KCHS 170927
OPUCHS

TEST...KCHS/KSAV Gateway Observations...TEST
National Weather Service Charleston SC
400 AM EST FRI NOV 17 2017

NOTE: "fair" indicates few or no clouds below 12,000 feet with no
significant weather and/or obstructions to visibility.

SCZ050-WAZ558-NCZ071-TXZ119-213-PAZ071-DCZ001-FLZ074-172-MI076-
NYZ176-178-MAZ016-IL014-TNZ027-NJZ106-GAZ044-MD014-171000-

...Gateway Observations for Charleston International...

CITY           SKY/WX    TMP DP  RH WIND       PRES   REMARKS
Chas Airport   CLEAR     43  43 100 N3        30.12S
Seattle        MOCLDY    42  38  85 S14       29.76R
Charlotte      CLEAR     46  29  51 NE8       30.15S
Dallas DFW     CLOUDY    71  67  87 S15       29.93F
Dallas Love    CLOUDY    70  66  87 S10       29.95F
Philladelphia  MOCLDY    46  28  49 NW14      30.05R
Wash National  MOCLDY    45  30  55 W9        30.16R
Baltimore      CLEAR     38  30  73 W9        30.11R WCI  31
Miami          PTCLDY    69  67  93 N6        29.97S
Detroit        CLOUDY    33  28  81 S3        30.26S
Newark         MOCLDY    43  28  55 NW22G29   29.98R
Laguardia      MOCLDY    44  29  55 NW20G28   29.95R
J F K          MOCLDY    43  27  53 NW29G36   29.97R
Boston Logan   CLOUDY    41  32  70 W14       29.73R
Ft. Lauderdale PTCLDY    66  66 100 N6        29.97S
Chicago O`Hare CLOUDY    37  30  75 S10       30.19S WCI  30
Chicago Midway CLOUDY    37  31  78 S10       30.20S WCI  30
Houston Bush   MOCLDY    69  69 100 S5        30.02S
Houston Hobby  PTCLDY    67  67 100 SE3       30.01F
Nashville      PTCLDY    36  33  89 NE3       30.18F
Atlanta        CLEAR     43  38  82 NW5       30.12F

$$

GAZ044-118-TXZ119-213-NCZ071-DCZ001-MDZ014-506-PAZ021-071-NJZ106-
NYZ176-178-MAZ106-OHZ011-021-055-MIZ076-KYZ091-ILZ014-INZ047-
MNZ060-ONZ431-171000-

...Gateway Observations for Savannah International...

CITY           SKY/WX    TMP DP  RH WIND       PRES   REMARKS
Savannah Arpt  CLEAR     43  42  97 CALM      30.11F
Atlanta        CLEAR     43  38  82 NW5       30.12F
Charlotte      CLEAR     46  29  51 NE8       30.15S
Dallas DFW     CLOUDY    71  67  87 S15       29.93F
Houston Bush   MOCLDY    69  69 100 S5        30.02S
Wash National  MOCLDY    45  30  55 W9        30.16R
Wash Dulles    MOCLDY    41  29  62 W6        30.15R
Baltimore      CLEAR     38  30  73 W9        30.11R WCI  31
Philadelphia   MOCLDY    46  28  49 NW14      30.05R
Newark         MOCLDY    43  28  55 NW22G29   29.98R
Laguardia      MOCLDY    44  29  55 NW20G28   29.95R
J F K          MOCLDY    43  27  53 NW29G36   29.97R
Boston         CLOUDY    41  32  70 W14       29.73R
Pittsburg      CLOUDY    38  29  70 N10       30.19S WCI  31
Akron          CLOUDY    37  28  70 NW7       30.21S WCI  32
Cleveland      CLOUDY    38  29  70 N6        30.26S WCI  33
Cincinnati     CLOUDY    36  31  82 SE10      30.24R WCI  28
Columbus       CLOUDY    37  30  78 CALM      30.25F
Detroit        CLOUDY    33  28  81 S3        30.26S
Chicago O`Hare CLOUDY    37  30  75 S10       30.19S WCI  30
Minneapolis    CLOUDY    35  29  78 SE17G29   29.84F WCI  25
Indianapolis   CLOUDY    35  29  78 SE13      30.21S WCI  26
Toronto Canada CLOUDY    30  19  64 N16       30.21S WCI  19

$$




USA.gov is the U.S. government's official web portal to all federal, state and local government web resources and services.